AEA5048 LEMG-LEMD

Flight info

Callsign AEA5048
Flight time 0h 49m
Altitude 32000
Route BLN DCT MORAL
Aircraft B738/M-SDE2E3FGHIRWXY/LB1

Departure

Time 2026-05-04 21:00
Airport Málaga-Costa del Sol Airport (LEMG)

Arrival

Time 2026-05-04 21:49
Airport Adolfo Suárez Madrid–Barajas Airport (LEMD)
Time Latitude Longitude Altitude Speed Heading
2026-05-04 20:37 36.67309 -4.49138 35 ft 0 kts 69°
2026-05-04 20:49 36.67309 -4.49139 35 ft 0 kts 69°
2026-05-04 20:50 36.67304 -4.49150 35 ft 2 kts 49°
2026-05-04 20:50 36.67292 -4.49161 35 ft 2 kts 24°
2026-05-04 20:50 36.67279 -4.49165 35 ft 2 kts 359°
2026-05-04 20:51 36.67264 -4.49161 35 ft 2 kts 333°
2026-05-04 20:51 36.67252 -4.49150 35 ft 2 kts 308°
2026-05-04 20:51 36.67244 -4.49136 35 ft 1 kts 313°
2026-05-04 20:51 36.67242 -4.49134 35 ft 0 kts 314°
2026-05-04 20:53 36.67253 -4.49148 35 ft 4 kts 314°
2026-05-04 20:54 36.67279 -4.49182 36 ft 7 kts 310°
2026-05-04 20:54 36.67322 -4.49246 37 ft 11 kts 310°
2026-05-04 20:54 36.67381 -4.49328 39 ft 14 kts 311°
2026-05-04 20:54 36.67453 -4.49434 39 ft 17 kts 311°
2026-05-04 20:55 36.67530 -4.49545 40 ft 18 kts 310°
2026-05-04 20:55 36.67605 -4.49648 42 ft 18 kts 313°
2026-05-04 20:55 36.67696 -4.49774 42 ft 21 kts 310°
2026-05-04 20:55 36.67816 -4.49834 42 ft 20 kts 37°
2026-05-04 20:56 36.67928 -4.49709 39 ft 22 kts 37°
2026-05-04 20:56 36.68038 -4.49591 38 ft 24 kts 42°
2026-05-04 20:56 36.68173 -4.49443 34 ft 27 kts 42°
2026-05-04 20:56 36.68274 -4.49248 32 ft 27 kts 108°
2026-05-04 20:57 36.68200 -4.49067 30 ft 27 kts 118°
2026-05-04 20:57 36.68112 -4.48856 27 ft 28 kts 118°
2026-05-04 20:57 36.68022 -4.48641 28 ft 27 kts 118°
2026-05-04 20:57 36.67940 -4.48449 26 ft 26 kts 118°
2026-05-04 20:58 36.67865 -4.48269 24 ft 24 kts 117°
2026-05-04 20:58 36.67791 -4.48095 22 ft 21 kts 118°
2026-05-04 20:58 36.67729 -4.47947 22 ft 18 kts 118°
2026-05-04 20:58 36.67703 -4.47805 22 ft 17 kts 65°
2026-05-04 20:59 36.67789 -4.47705 22 ft 17 kts 354°
2026-05-04 20:59 36.67864 -4.47828 22 ft 22 kts 297°
2026-05-04 20:59 36.68030 -4.48245 24 ft 93 kts 298°
2026-05-04 20:59 36.68448 -4.49241 36 ft 162 kts 297°
2026-05-04 21:00 36.68986 -4.50483 722 ft 169 kts 297°
2026-05-04 21:00 36.69609 -4.51836 1299 ft 193 kts 307°
2026-05-04 21:00 36.70650 -4.53118 1566 ft 234 kts 315°
2026-05-04 21:00 36.71927 -4.54699 1753 ft 273 kts 314°
2026-05-04 21:01 36.73210 -4.56347 3038 ft 268 kts 312°
2026-05-04 21:01 36.74425 -4.57979 4428 ft 256 kts 310°
2026-05-04 21:01 36.75502 -4.59165 5630 ft 244 kts 326°
2026-05-04 21:01 36.77064 -4.59930 6716 ft 242 kts 341°
2026-05-04 21:02 36.78660 -4.60475 7568 ft 245 kts 340°
2026-05-04 21:02 36.80254 -4.60965 8334 ft 251 kts 351°
2026-05-04 21:02 36.82010 -4.60641 9089 ft 263 kts 22°
2026-05-04 21:02 36.83521 -4.59320 9612 ft 279 kts 41°
2026-05-04 21:03 36.84985 -4.57655 10283 ft 288 kts 39°
2026-05-04 21:03 36.86507 -4.56017 10990 ft 294 kts 39°
2026-05-04 21:03 36.87546 -4.54887 11497 ft 297 kts 40°
2026-05-04 21:03 36.89086 -4.53194 12212 ft 302 kts 40°
2026-05-04 21:04 36.90669 -4.51453 12971 ft 305 kts 40°
2026-05-04 21:04 36.92262 -4.49701 13704 ft 308 kts 40°
2026-05-04 21:04 36.93852 -4.47948 14413 ft 311 kts 41°
2026-05-04 21:04 36.95334 -4.46313 15053 ft 314 kts 41°
2026-05-04 21:05 36.96960 -4.44520 15748 ft 316 kts 40°
2026-05-04 21:05 36.98688 -4.42828 16429 ft 319 kts 34°
2026-05-04 21:05 37.00581 -4.41317 16796 ft 334 kts 32°
2026-05-04 21:05 37.02500 -4.39808 16876 ft 357 kts 33°
2026-05-04 21:06 37.04630 -4.38100 17115 ft 375 kts 33°
2026-05-04 21:06 37.06366 -4.36712 17514 ft 383 kts 33°
2026-05-04 21:06 37.08601 -4.34933 18160 ft 388 kts 34°
2026-05-04 21:06 37.10888 -4.33112 18866 ft 391 kts 34°
2026-05-04 21:07 37.13174 -4.31290 19546 ft 394 kts 34°
2026-05-04 21:07 37.15496 -4.29438 20190 ft 398 kts 34°
2026-05-04 21:07 37.17808 -4.27594 20794 ft 402 kts 34°
2026-05-04 21:07 37.19709 -4.26077 21322 ft 404 kts 34°
2026-05-04 21:08 37.21900 -4.24327 21888 ft 407 kts 34°
2026-05-04 21:08 37.24291 -4.22416 22483 ft 410 kts 35°
2026-05-04 21:08 37.26689 -4.20498 23054 ft 413 kts 35°
2026-05-04 21:08 37.29103 -4.18566 23604 ft 416 kts 35°
2026-05-04 21:09 37.31545 -4.16609 24140 ft 419 kts 35°
2026-05-04 21:09 37.34014 -4.14631 24670 ft 422 kts 35°
2026-05-04 21:09 37.36472 -4.12659 25182 ft 425 kts 35°
2026-05-04 21:09 37.38984 -4.10642 25689 ft 428 kts 35°
2026-05-04 21:10 37.41456 -4.08655 26170 ft 430 kts 36°
2026-05-04 21:10 37.43991 -4.06618 26645 ft 433 kts 36°
2026-05-04 21:10 37.46517 -4.04585 27109 ft 436 kts 36°
2026-05-04 21:10 37.49087 -4.02515 27563 ft 438 kts 36°
2026-05-04 21:11 37.51032 -4.00947 27896 ft 440 kts 36°
2026-05-04 21:11 37.53613 -3.98865 28329 ft 443 kts 36°
2026-05-04 21:11 37.56040 -3.96906 28722 ft 445 kts 36°
2026-05-04 21:11 37.58615 -3.94826 29201 ft 445 kts 36°
2026-05-04 21:12 37.60794 -3.93066 29768 ft 441 kts 36°
2026-05-04 21:12 37.63335 -3.91012 30317 ft 438 kts 36°
2026-05-04 21:12 37.65901 -3.88934 30813 ft 437 kts 36°
2026-05-04 21:12 37.68453 -3.86866 31322 ft 435 kts 37°
2026-05-04 21:13 37.70973 -3.84822 31781 ft 433 kts 37°
2026-05-04 21:13 37.73418 -3.82837 32065 ft 435 kts 37°
2026-05-04 21:13 37.78117 -3.79016 32048 ft 434 kts 37°
2026-05-04 21:14 37.82933 -3.75396 32047 ft 434 kts 30°
2026-05-04 21:14 37.88608 -3.72772 32047 ft 440 kts 20°
2026-05-04 21:15 37.94441 -3.70536 32047 ft 440 kts 21°
2026-05-04 21:15 38.00230 -3.68270 32047 ft 441 kts 20°
2026-05-04 21:16 38.05497 -3.66240 32047 ft 441 kts 20°
2026-05-04 21:16 38.10748 -3.64217 32047 ft 440 kts 20°
2026-05-04 21:17 38.16711 -3.62497 32047 ft 444 kts
2026-05-04 21:17 38.22655 -3.61901 32047 ft 446 kts
2026-05-04 21:18 38.28148 -3.61308 32046 ft 446 kts
2026-05-04 21:18 38.34333 -3.60674 32046 ft 446 kts
2026-05-04 21:19 38.40503 -3.60059 32046 ft 446 kts
2026-05-04 21:19 38.46445 -3.59471 32047 ft 446 kts
2026-05-04 21:20 38.52222 -3.58903 32047 ft 446 kts
2026-05-04 21:20 38.57951 -3.58342 32044 ft 446 kts
2026-05-04 21:21 38.64125 -3.57738 32023 ft 446 kts
2026-05-04 21:21 38.70301 -3.57133 32004 ft 446 kts
2026-05-04 21:22 38.76446 -3.56532 31996 ft 446 kts
2026-05-04 21:22 38.82639 -3.55924 31995 ft 446 kts
2026-05-04 21:23 38.88773 -3.55321 31993 ft 446 kts
2026-05-04 21:23 38.91885 -3.55015 31776 ft 444 kts
2026-05-04 21:23 38.94952 -3.54730 31288 ft 441 kts
2026-05-04 21:24 38.97984 -3.54846 30767 ft 439 kts 352°
2026-05-04 21:24 39.00919 -3.55671 30226 ft 430 kts 339°
2026-05-04 21:24 39.03595 -3.57230 29677 ft 413 kts 327°
2026-05-04 21:24 39.05965 -3.59141 29149 ft 400 kts 324°
2026-05-04 21:25 39.08266 -3.61023 28631 ft 388 kts 326°
2026-05-04 21:25 39.10545 -3.62823 28126 ft 377 kts 326°
2026-05-04 21:25 39.12588 -3.64443 27674 ft 373 kts 326°
2026-05-04 21:25 39.14780 -3.66207 27187 ft 379 kts 326°
2026-05-04 21:26 39.17003 -3.68001 26680 ft 373 kts 326°
2026-05-04 21:26 39.19167 -3.69746 26196 ft 363 kts 326°
2026-05-04 21:26 39.21303 -3.71475 25725 ft 367 kts 326°
2026-05-04 21:26 39.23483 -3.73244 25228 ft 367 kts 326°
2026-05-04 21:27 39.25596 -3.74958 24751 ft 356 kts 326°
2026-05-04 21:27 39.27672 -3.76645 24291 ft 356 kts 326°
2026-05-04 21:27 39.29793 -3.78375 23808 ft 360 kts 326°
2026-05-04 21:27 39.31862 -3.80058 23336 ft 349 kts 326°
2026-05-04 21:28 39.33898 -3.81717 22883 ft 346 kts 326°
2026-05-04 21:28 39.35310 -3.82872 22566 ft 352 kts 326°
2026-05-04 21:28 39.37371 -3.84555 22091 ft 345 kts 326°
2026-05-04 21:28 39.39349 -3.86168 21646 ft 336 kts 326°
2026-05-04 21:29 39.41282 -3.87750 21216 ft 343 kts 326°
2026-05-04 21:29 39.43308 -3.89410 20977 ft 341 kts 326°
2026-05-04 21:29 39.45294 -3.91036 20998 ft 342 kts 326°
2026-05-04 21:29 39.47291 -3.92672 20803 ft 334 kts 326°
2026-05-04 21:30 39.49233 -3.94264 20433 ft 332 kts 326°
2026-05-04 21:30 39.51182 -3.95866 20012 ft 339 kts 326°
2026-05-04 21:30 39.53156 -3.97486 19568 ft 330 kts 326°
2026-05-04 21:30 39.55072 -3.99060 19142 ft 329 kts 326°
2026-05-04 21:31 39.58884 -4.02197 18446 ft 327 kts 326°
2026-05-04 21:31 39.60806 -4.03780 18023 ft 330 kts 326°
2026-05-04 21:31 39.62735 -4.05370 17591 ft 329 kts 326°
2026-05-04 21:32 39.64673 -4.06922 17157 ft 329 kts 330°
2026-05-04 21:32 39.66842 -4.07883 16713 ft 330 kts 351°
2026-05-04 21:32 39.69115 -4.07738 16286 ft 330 kts 13°
2026-05-04 21:32 39.71215 -4.06639 15884 ft 329 kts 31°
2026-05-04 21:33 39.72961 -4.04763 15486 ft 327 kts 46°
2026-05-04 21:33 39.74511 -4.02628 15084 ft 326 kts 46°
2026-05-04 21:33 39.76094 -4.00535 14681 ft 324 kts 45°
2026-05-04 21:33 39.77655 -3.98493 14344 ft 320 kts 45°
2026-05-04 21:34 39.79196 -3.96456 14190 ft 310 kts 45°
2026-05-04 21:34 39.80483 -3.94752 14093 ft 300 kts 45°
2026-05-04 21:34 39.81920 -3.92850 13983 ft 288 kts 45°
2026-05-04 21:34 39.83120 -3.91259 13992 ft 276 kts 45°
2026-05-04 21:35 39.84386 -3.89581 13997 ft 277 kts 45°
2026-05-04 21:35 39.85728 -3.87801 14014 ft 280 kts 45°
2026-05-04 21:35 39.87102 -3.85976 14020 ft 281 kts 45°
2026-05-04 21:35 39.88461 -3.84171 14020 ft 280 kts 45°
2026-05-04 21:36 39.89813 -3.82372 13924 ft 272 kts 45°
2026-05-04 21:36 39.91121 -3.80633 13685 ft 273 kts 45°
2026-05-04 21:36 39.92283 -3.79086 13433 ft 277 kts 45°
2026-05-04 21:36 39.93543 -3.77408 13152 ft 274 kts 45°
2026-05-04 21:37 39.94774 -3.75766 12878 ft 271 kts 45°
2026-05-04 21:37 39.95984 -3.74153 12607 ft 268 kts 45°
2026-05-04 21:37 39.97290 -3.72410 12315 ft 265 kts 45°
2026-05-04 21:37 39.98569 -3.70703 12033 ft 269 kts 45°
2026-05-04 21:38 39.99872 -3.68962 11736 ft 269 kts 45°
2026-05-04 21:38 40.01171 -3.67226 11444 ft 266 kts 45°
2026-05-04 21:38 40.02461 -3.65501 11154 ft 263 kts 45°
2026-05-04 21:38 40.03712 -3.63827 10872 ft 260 kts 45°
2026-05-04 21:39 40.04974 -3.62137 10589 ft 259 kts 45°
2026-05-04 21:39 40.06242 -3.60438 10303 ft 263 kts 45°
2026-05-04 21:39 40.07518 -3.58727 10013 ft 261 kts 45°
2026-05-04 21:39 40.08758 -3.57064 9730 ft 258 kts 45°
2026-05-04 21:40 40.10005 -3.55392 9445 ft 255 kts 45°
2026-05-04 21:40 40.11239 -3.53734 9163 ft 252 kts 45°
2026-05-04 21:40 40.12445 -3.52114 8887 ft 249 kts 44°
2026-05-04 21:40 40.13669 -3.50470 8611 ft 255 kts 44°
2026-05-04 21:41 40.14900 -3.48814 8324 ft 253 kts 45°
2026-05-04 21:41 40.16111 -3.47183 8046 ft 251 kts 44°
2026-05-04 21:41 40.17348 -3.45572 7764 ft 250 kts 41°
2026-05-04 21:41 40.18634 -3.44070 7487 ft 248 kts 40°
2026-05-04 21:42 40.19904 -3.42576 7213 ft 244 kts 40°
2026-05-04 21:42 40.21184 -3.41191 6932 ft 236 kts 31°
2026-05-04 21:42 40.22596 -3.40167 6681 ft 226 kts 27°
2026-05-04 21:42 40.23928 -3.39201 6441 ft 212 kts 28°
2026-05-04 21:43 40.25181 -3.38349 6306 ft 193 kts 18°
2026-05-04 21:43 40.26459 -3.38120 6205 ft 186 kts
2026-05-04 21:43 40.27746 -3.38039 6058 ft 187 kts
2026-05-04 21:43 40.29051 -3.37937 5895 ft 187 kts
2026-05-04 21:44 40.30347 -3.37839 5712 ft 186 kts
2026-05-04 21:44 40.31592 -3.38141 5550 ft 183 kts 331°
2026-05-04 21:44 40.32675 -3.39025 5374 ft 185 kts 327°
2026-05-04 21:44 40.33733 -3.39956 5242 ft 183 kts 325°
2026-05-04 21:45 40.34765 -3.40908 5016 ft 185 kts 322°
2026-05-04 21:45 40.35784 -3.41923 4767 ft 180 kts 322°
2026-05-04 21:45 40.36771 -3.42915 4535 ft 180 kts 322°
2026-05-04 21:45 40.37766 -3.43920 4283 ft 181 kts 322°
2026-05-04 21:46 40.38753 -3.44917 4020 ft 173 kts 322°
2026-05-04 21:46 40.39679 -3.45853 3800 ft 168 kts 322°
2026-05-04 21:46 40.40616 -3.46800 3567 ft 168 kts 322°
2026-05-04 21:46 40.41540 -3.47734 3338 ft 168 kts 322°
2026-05-04 21:47 40.42454 -3.48659 3112 ft 167 kts 322°
2026-05-04 21:47 40.43367 -3.49582 2887 ft 166 kts 322°
2026-05-04 21:47 40.44289 -3.50515 2660 ft 166 kts 321°
2026-05-04 21:47 40.45193 -3.51431 2435 ft 166 kts 321°
2026-05-04 21:48 40.46099 -3.52341 2238 ft 165 kts 321°
2026-05-04 21:48 40.47011 -3.53262 1997 ft 164 kts 320°
2026-05-04 21:48 40.47905 -3.54175 1878 ft 154 kts 321°
2026-05-04 21:48 40.48566 -3.54851 1890 ft 93 kts 321°
2026-05-04 21:49 40.48929 -3.55219 1897 ft 40 kts 321°
2026-05-04 21:49 40.49136 -3.55446 1903 ft 35 kts 311°
2026-05-04 21:49 40.49237 -3.55673 1912 ft 24 kts 294°
2026-05-04 21:49 40.49291 -3.55863 1920 ft 20 kts 282°
2026-05-04 21:50 40.49299 -3.56028 1926 ft 16 kts 269°
2026-05-04 21:50 40.49298 -3.56169 1930 ft 14 kts 268°
2026-05-04 21:50 40.49273 -3.56275 1935 ft 9 kts 264°
2026-05-04 21:50 40.49272 -3.56351 1938 ft 7 kts 270°
2026-05-04 21:51 40.49272 -3.56361 1939 ft 0 kts 269°